Torna al catalogo

THOR ABLESTAR DEB

AttivoLEO
NORAD 1942·DEBRIS·🇺🇸 United States

Lanciato Jun 29, 1961 da Cape Canaveral Space Force Station

Loading…

Prossimi Passaggi (prossime 24 ore)

TLE

AggiornatoSource: Space-Track

Epoca: Sep 14, 2026, 11:55 UTC

1 01942U 61015HS  26257.49686725  .00000200  00000-0  53022-3 0  9995
2 01942  67.2658 172.5418 0341438 188.4464 349.5295 13.13455736128543

Traccia THOR ABLESTAR DEB in tempo reale con AllMySat

Download on the App Store